STARLINK-35324, 65838

Orbit data source: Space-Track

STARLINK-35324, 65838 is a payload satellite owned by SpaceX/Seattle (US) in LEO that was launched on Mon, 29 Sep 2025 UTC via an FALCON 9 launch vehicle from the Air Force Western Test Range (AFWTR). Payload-class satellites include a variety of spacecraft equipped with specific instruments for various scientific and technological missions. These include communications satellites like Starlink; space stations such as the ISS; scientific satellites like the Hubble; Earth observation satellites from companies like Planet Labs, Umbra, and HawkEye 360; GPS; miniature CubeSats for education and research; and military/defense satellites.

Loading next visibility...
Identifier
65838, 2025-221R
Orbit
LEO
Country
Flag of USUS
Related business
Manufacturer
SpaceX/Seattle
Mission
Operational Commercial Communications
Bus & Motor
STARLINK V2MO, Unknown motor
Mass
575 kg wet, ~530 kg dry
Launch date (UTC)
2025-09-29 (9 months ago)
Launch vehicle
FALCON 9
Launch site
Air Force Western Test Range (AFWTR)
Object type
Payload
Rocket body
Debris
Shape & HBR
Box + 2 Pan, 17.7 m
Radar Cross Section
36.964 m², Large (>1 m²)

Expand to show TLE details & history
Last TLE update: 17 hours ago

TLE from 17 hours ago
0 STARLINK-35324
1 65838U 25221R   26171.14176112  .00017362  00000-0  59691-3 0  9994
2 65838  53.1592 332.8644 0000873  78.6023 281.5076 15.30201376 40417
Epoch: 2026-06-20T03:24Z
TLE epoch observation values (Epoch: 2026-06-20T03:24:08.160Z)
Latitude
-0.00002°
Longitude
13.46975°
Altitude
475.991 km
Speed
7.629 km/s
True Right ascension
22h 11m 27s
True Declination
0° 00' 00"
Sunlit
Object was in full shadow at epoch
Visualization orbit readout
Latitude
Unknown
Longitude
Unknown
Altitude
Unknown
Speed
Unknown
Apparent Right ascension
Unknown
Apparent Declination
Unknown
Sunlit
N/A
Visualization observer readout
Local Sidereal Time
07:20:12
Azimuth
Unknown
Elevation
Unknown
Doppler factor
Unknown
Orbital elements
Apogee altitude
476.066 km
Perigee altitude
474.869 km
Semi-major axis
6,853.605 km
Eccentricity
0.00009
Inclination
53.1592°
RAAN
332.8644°
Arg. of periapsis
78.6023°
True anomaly
281.4978°
Mean anomaly
281.5076°
Eccentric anomaly
281.5027°
Mean motion
3.82529 °/min
Orbital period
94.11 mins
BSTAR
0.00059691
Loading maneuver chart data...
Computing Atmospheric mass density...
Loading historical data...
Loading historical data...
Loading historical data...
Loading historical data...
Loading historical data...
Loading historical data...
Loading historical data...

Documentation

Showing up to 5 results
|